Time,TemperatureF,DewpointF,PressureIn,WindDirection,WindDirectionDegrees,WindSpeedMPH,WindSpeedGustMPH,Humidity,HourlyPrecipIn,Conditions,Clouds,dailyrainin,SolarRadiationWatts/m^2,SoftwareType,DateUTC
2013-01-18 00:04:00,27.0,25.0,-100.00,NNW,335,4.0,11.0,91,0.00,,,0.01,0.000000,,2013-01-18 05:04:00,
2013-01-18 00:12:00,27.0,25.0,-100.00,NNW,335,4.0,11.0,91,0.00,,,0.01,0.000000,,2013-01-18 05:12:00,
2013-01-18 00:33:00,26.0,23.0,-100.00,NNW,330,5.0,10.0,89,0.00,,,0.01,0.000000,,2013-01-18 05:33:00,
2013-01-18 00:43:00,26.0,23.0,-100.00,NNW,330,5.0,10.0,89,0.00,,,0.01,0.000000,,2013-01-18 05:43:00,
2013-01-18 00:53:00,26.0,23.0,-100.00,NNW,330,5.0,10.0,89,0.00,,,0.01,0.000000,,2013-01-18 05:53:00,
2013-01-18 01:02:00,26.0,23.0,-100.00,NNW,330,5.0,10.0,89,0.00,,,0.01,0.000000,,2013-01-18 06:02:00,
2013-01-18 01:12:00,26.0,23.0,-100.00,NNW,330,5.0,10.0,89,0.00,,,0.01,0.000000,,2013-01-18 06:12:00,
2013-01-18 01:33:00,25.0,22.0,-100.00,NNW,330,5.0,10.0,90,0.00,,,0.01,0.000000,,2013-01-18 06:33:00,
2013-01-18 01:43:00,25.0,22.0,-100.00,NNW,330,5.0,10.0,90,0.00,,,0.01,0.000000,,2013-01-18 06:43:00,
2013-01-18 01:53:00,25.0,22.0,-100.00,NNW,330,5.0,10.0,90,0.00,,,0.01,0.000000,,2013-01-18 06:53:00,
2013-01-18 02:02:00,25.0,22.0,-100.00,NNW,330,5.0,10.0,90,0.00,,,0.01,0.000000,,2013-01-18 07:02:00,
2013-01-18 02:12:00,25.0,22.0,-100.00,NNW,330,5.0,10.0,90,0.00,,,0.01,0.000000,,2013-01-18 07:12:00,
2013-01-18 02:33:00,25.0,22.0,-100.00,NNW,332,4.0,10.0,90,0.00,,,0.01,0.000000,,2013-01-18 07:33:00,
2013-01-18 02:43:00,25.0,22.0,-100.00,NNW,332,4.0,10.0,90,0.00,,,0.01,0.000000,,2013-01-18 07:43:00,
2013-01-18 02:52:00,25.0,22.0,-100.00,NNW,332,4.0,10.0,90,0.00,,,0.01,0.000000,,2013-01-18 07:52:00,
2013-01-18 03:02:00,25.0,22.0,-100.00,NNW,332,4.0,10.0,90,0.00,,,0.01,0.000000,,2013-01-18 08:02:00,
2013-01-18 03:12:00,25.0,22.0,-100.00,NNW,332,4.0,10.0,90,0.00,,,0.01,0.000000,,2013-01-18 08:12:00,
2013-01-18 03:43:00,25.0,23.0,-100.00,NNW,345,3.0,8.0,91,0.00,,,0.01,0.000000,,2013-01-18 08:43:00,
2013-01-18 03:53:00,25.0,23.0,-100.00,NNW,345,3.0,8.0,91,0.00,,,0.01,0.000000,,2013-01-18 08:53:00,
2013-01-18 04:03:00,25.0,23.0,-100.00,NNW,345,3.0,8.0,91,0.00,,,0.01,0.000000,,2013-01-18 09:03:00,
2013-01-18 04:12:00,25.0,23.0,-100.00,NNW,345,3.0,8.0,91,0.00,,,0.01,0.000000,,2013-01-18 09:12:00,
2013-01-18 04:43:00,25.0,22.0,-100.00,NNW,337,5.0,11.0,90,0.00,,,0.00,0.000000,,2013-01-18 09:43:00,
2013-01-18 04:53:00,25.0,22.0,-100.00,NNW,337,5.0,11.0,90,0.00,,,0.00,0.000000,,2013-01-18 09:53:00,
2013-01-18 05:03:00,25.0,22.0,-100.00,NNW,337,5.0,11.0,90,0.00,,,0.00,0.000000,,2013-01-18 10:03:00,
2013-01-18 05:12:00,25.0,22.0,-100.00,NNW,337,5.0,11.0,90,0.00,,,0.00,0.000000,,2013-01-18 10:12:00,
2013-01-18 05:43:00,24.0,21.0,-100.00,NNW,335,6.0,14.0,87,0.00,,,0.00,0.000000,,2013-01-18 10:43:00,
2013-01-18 05:53:00,24.0,21.0,-100.00,NNW,335,6.0,14.0,87,0.00,,,0.00,0.000000,,2013-01-18 10:53:00,
2013-01-18 06:03:00,24.0,21.0,-100.00,NNW,335,6.0,14.0,87,0.00,,,0.00,0.000000,,2013-01-18 11:03:00,
2013-01-18 06:12:00,24.0,21.0,-100.00,NNW,335,6.0,14.0,87,0.00,,,0.00,0.000000,,2013-01-18 11:12:00,
2013-01-18 06:43:00,23.0,20.0,-100.00,NNW,330,6.0,13.0,87,0.00,,,0.00,0.000000,,2013-01-18 11:43:00,
2013-01-18 06:53:00,23.0,20.0,-100.00,NNW,330,6.0,13.0,87,0.00,,,0.00,0.000000,,2013-01-18 11:53:00,
2013-01-18 07:03:00,23.0,20.0,-100.00,NNW,330,6.0,13.0,87,0.00,,,0.00,0.000000,,2013-01-18 12:03:00,
2013-01-18 07:12:00,23.0,20.0,-100.00,NNW,330,6.0,13.0,87,0.00,,,0.00,0.000000,,2013-01-18 12:12:00,
2013-01-18 07:43:00,22.0,18.0,-100.00,NNW,342,5.0,10.0,86,0.00,,,0.00,0.000000,,2013-01-18 12:43:00,
2013-01-18 07:53:00,22.0,18.0,-100.00,NNW,342,5.0,10.0,86,0.00,,,0.00,0.000000,,2013-01-18 12:53:00,
2013-01-18 08:03:00,22.0,18.0,-100.00,NNW,342,5.0,10.0,86,0.00,,,0.00,0.000000,,2013-01-18 13:03:00,
2013-01-18 08:12:00,22.0,18.0,-100.00,NNW,342,5.0,10.0,86,0.00,,,0.00,0.000000,,2013-01-18 13:12:00,
2013-01-18 08:33:00,21.0,17.0,-100.00,NNW,335,6.0,12.0,84,0.00,,,0.00,0.000000,,2013-01-18 13:33:00,
2013-01-18 08:43:00,21.0,17.0,-100.00,NNW,335,6.0,12.0,84,0.00,,,0.00,0.000000,,2013-01-18 13:43:00,
2013-01-18 08:53:00,21.0,17.0,-100.00,NNW,335,6.0,12.0,84,0.00,,,0.00,0.000000,,2013-01-18 13:53:00,
2013-01-18 09:03:00,21.0,17.0,-100.00,NNW,335,6.0,12.0,84,0.00,,,0.00,0.000000,,2013-01-18 14:03:00,
2013-01-18 09:12:00,21.0,17.0,-100.00,NNW,335,6.0,12.0,84,0.00,,,0.00,0.000000,,2013-01-18 14:12:00,
2013-01-18 09:43:00,23.0,18.0,-100.00,NNW,336,4.0,10.0,82,0.00,,,0.00,8.000000,,2013-01-18 14:43:00,
2013-01-18 09:53:00,23.0,18.0,-100.00,NNW,336,4.0,10.0,82,0.00,,,0.00,8.000000,,2013-01-18 14:53:00,
2013-01-18 10:03:00,23.0,18.0,-100.00,NNW,336,4.0,10.0,82,0.00,,,0.00,8.000000,,2013-01-18 15:03:00,
2013-01-18 10:13:00,23.0,18.0,-100.00,NNW,336,4.0,10.0,82,0.00,,,0.00,8.000000,,2013-01-18 15:13:00,
2013-01-18 10:34:00,29.0,21.0,-100.00,NW,312,3.0,7.0,73,0.00,,,0.00,27.000000,,2013-01-18 15:34:00,
2013-01-18 10:43:00,29.0,21.0,-100.00,NW,312,3.0,7.0,73,0.00,,,0.00,27.000000,,2013-01-18 15:43:00,
2013-01-18 10:54:00,29.0,21.0,-100.00,NW,312,3.0,7.0,73,0.00,,,0.00,27.000000,,2013-01-18 15:54:00,
2013-01-18 11:03:00,29.0,21.0,-100.00,NW,312,3.0,7.0,73,0.00,,,0.00,27.000000,,2013-01-18 16:03:00,
2013-01-18 11:13:00,29.0,21.0,-100.00,NW,312,3.0,7.0,73,0.00,,,0.00,27.000000,,2013-01-18 16:13:00,
2013-01-18 11:33:00,32.0,20.0,-100.00,West,271,3.0,9.0,61,0.01,,,0.01,66.000000,,2013-01-18 16:33:00,
2013-01-18 11:43:00,32.0,20.0,-100.00,West,271,3.0,9.0,61,0.01,,,0.01,66.000000,,2013-01-18 16:43:00,
2013-01-18 11:53:00,32.0,20.0,-100.00,West,271,3.0,9.0,61,0.01,,,0.01,66.000000,,2013-01-18 16:53:00,
2013-01-18 12:03:00,32.0,20.0,-100.00,West,271,3.0,9.0,61,0.01,,,0.01,66.000000,,2013-01-18 17:03:00,
2013-01-18 12:13:00,32.0,20.0,-100.00,West,271,3.0,9.0,61,0.01,,,0.01,66.000000,,2013-01-18 17:13:00,
2013-01-18 12:34:00,36.0,22.0,-100.00,WSW,251,3.0,7.0,57,0.00,,,0.01,117.000000,,2013-01-18 17:34:00,
2013-01-18 12:43:00,36.0,22.0,-100.00,WSW,251,3.0,7.0,57,0.00,,,0.01,117.000000,,2013-01-18 17:43:00,
2013-01-18 12:53:00,36.0,22.0,-100.00,WSW,251,3.0,7.0,57,0.00,,,0.01,117.000000,,2013-01-18 17:53:00,
2013-01-18 13:03:00,36.0,22.0,-100.00,WSW,251,3.0,7.0,57,0.00,,,0.01,117.000000,,2013-01-18 18:03:00,
2013-01-18 13:13:00,36.0,22.0,-100.00,WSW,251,3.0,7.0,57,0.00,,,0.01,117.000000,,2013-01-18 18:13:00,
2013-01-18 13:34:00,35.0,16.0,-100.00,West,268,5.0,8.0,46,0.10,,,0.11,154.000000,,2013-01-18 18:34:00,
2013-01-18 13:43:00,35.0,16.0,-100.00,West,268,5.0,8.0,46,0.10,,,0.11,154.000000,,2013-01-18 18:43:00,
2013-01-18 13:53:00,35.0,16.0,-100.00,West,268,5.0,8.0,46,0.10,,,0.11,154.000000,,2013-01-18 18:53:00,
2013-01-18 14:03:00,35.0,16.0,-100.00,West,268,5.0,8.0,46,0.10,,,0.11,154.000000,,2013-01-18 19:03:00,
2013-01-18 14:13:00,35.0,16.0,-100.00,West,268,5.0,8.0,46,0.10,,,0.11,154.000000,,2013-01-18 19:13:00,
2013-01-18 14:33:00,37.0,20.0,-100.00,West,266,4.0,8.0,49,0.15,,,0.26,173.000000,,2013-01-18 19:33:00,
2013-01-18 14:43:00,37.0,20.0,-100.00,West,266,4.0,8.0,49,0.15,,,0.26,173.000000,,2013-01-18 19:43:00,
2013-01-18 14:53:00,37.0,20.0,-100.00,West,266,4.0,8.0,49,0.15,,,0.26,173.000000,,2013-01-18 19:53:00,
2013-01-18 15:03:00,37.0,20.0,-100.00,West,266,4.0,8.0,49,0.15,,,0.26,173.000000,,2013-01-18 20:03:00,
2013-01-18 15:13:00,37.0,20.0,-100.00,West,266,4.0,8.0,49,0.15,,,0.26,173.000000,,2013-01-18 20:13:00,
2013-01-18 15:33:00,37.0,21.0,-100.00,WSW,252,4.0,7.0,51,0.11,,,0.37,255.000000,,2013-01-18 20:33:00,
2013-01-18 15:43:00,37.0,21.0,-100.00,WSW,252,4.0,7.0,51,0.11,,,0.37,255.000000,,2013-01-18 20:43:00,
2013-01-18 15:53:00,37.0,21.0,-100.00,WSW,252,4.0,7.0,51,0.11,,,0.37,255.000000,,2013-01-18 20:53:00,
2013-01-18 16:03:00,37.0,21.0,-100.00,WSW,252,4.0,7.0,51,0.11,,,0.37,255.000000,,2013-01-18 21:03:00,
2013-01-18 16:13:00,37.0,21.0,-100.00,WSW,252,4.0,7.0,51,0.11,,,0.37,255.000000,,2013-01-18 21:13:00,
2013-01-18 16:43:00,36.0,23.0,-100.00,South,189,2.0,7.0,58,0.05,,,0.42,178.000000,,2013-01-18 21:43:00,
2013-01-18 16:53:00,36.0,23.0,-100.00,South,189,2.0,7.0,58,0.05,,,0.42,178.000000,,2013-01-18 21:53:00,
2013-01-18 17:03:00,36.0,23.0,-100.00,South,189,2.0,7.0,58,0.05,,,0.42,178.000000,,2013-01-18 22:03:00,
2013-01-18 17:12:00,36.0,23.0,-100.00,South,189,2.0,7.0,58,0.05,,,0.42,178.000000,,2013-01-18 22:12:00,
2013-01-18 17:43:00,30.0,20.0,-100.00,South,187,2.0,7.0,66,0.01,,,0.43,50.000000,,2013-01-18 22:43:00,
2013-01-18 17:53:00,30.0,20.0,-100.00,South,187,2.0,7.0,66,0.01,,,0.43,50.000000,,2013-01-18 22:53:00,
2013-01-18 18:03:00,30.0,20.0,-100.00,South,187,2.0,7.0,66,0.01,,,0.43,50.000000,,2013-01-18 23:03:00,
2013-01-18 18:12:00,30.0,20.0,-100.00,South,187,2.0,7.0,66,0.01,,,0.43,50.000000,,2013-01-18 23:12:00,
2013-01-18 18:33:00,28.0,19.0,-100.00,South,179,1.0,6.0,69,0.00,,,0.43,1.000000,,2013-01-18 23:33:00,
2013-01-18 18:43:00,28.0,19.0,-100.00,South,179,1.0,6.0,69,0.00,,,0.43,1.000000,,2013-01-18 23:43:00,
2013-01-18 18:53:00,28.0,19.0,-100.00,South,179,1.0,6.0,69,0.00,,,0.43,1.000000,,2013-01-18 23:53:00,
2013-01-18 19:03:00,28.0,19.0,-100.00,South,179,1.0,6.0,69,0.00,,,0.43,1.000000,,2013-01-19 00:03:00,
2013-01-18 19:13:00,28.0,19.0,-100.00,South,179,1.0,6.0,69,0.00,,,0.43,1.000000,,2013-01-19 00:13:00,
2013-01-18 19:43:00,27.0,21.0,-100.00,SSW,212,3.0,7.0,77,0.00,,,0.43,0.000000,,2013-01-19 00:43:00,
2013-01-18 19:53:00,27.0,21.0,-100.00,SSW,212,3.0,7.0,77,0.00,,,0.43,0.000000,,2013-01-19 00:53:00,
2013-01-18 20:03:00,27.0,21.0,-100.00,SSW,212,3.0,7.0,77,0.00,,,0.43,0.000000,,2013-01-19 01:03:00,
2013-01-18 20:12:00,27.0,21.0,-100.00,SSW,212,3.0,7.0,77,0.00,,,0.43,0.000000,,2013-01-19 01:12:00,
2013-01-18 20:33:00,25.0,21.0,-100.00,SSW,203,0.0,2.0,83,0.00,,,0.43,0.000000,,2013-01-19 01:33:00,
2013-01-18 20:43:00,25.0,21.0,-100.00,SSW,203,0.0,2.0,83,0.00,,,0.43,0.000000,,2013-01-19 01:43:00,
2013-01-18 20:53:00,25.0,21.0,-100.00,SSW,203,0.0,2.0,83,0.00,,,0.43,0.000000,,2013-01-19 01:53:00,
2013-01-18 21:03:00,25.0,21.0,-100.00,SSW,203,0.0,2.0,83,0.00,,,0.43,0.000000,,2013-01-19 02:03:00,
2013-01-18 21:12:00,25.0,21.0,-100.00,SSW,203,0.0,2.0,83,0.00,,,0.43,0.000000,,2013-01-19 02:12:00,
2013-01-18 21:33:00,24.0,20.0,-100.00,South,184,2.0,3.0,86,0.00,,,0.43,0.000000,,2013-01-19 02:33:00,
2013-01-18 21:43:00,24.0,20.0,-100.00,South,184,2.0,3.0,86,0.00,,,0.43,0.000000,,2013-01-19 02:43:00,
2013-01-18 21:53:00,24.0,20.0,-100.00,South,184,2.0,3.0,86,0.00,,,0.43,0.000000,,2013-01-19 02:53:00,
2013-01-18 22:03:00,24.0,20.0,-100.00,South,184,2.0,3.0,86,0.00,,,0.43,0.000000,,2013-01-19 03:03:00,
2013-01-18 22:12:00,24.0,20.0,-100.00,South,184,2.0,3.0,86,0.00,,,0.43,0.000000,,2013-01-19 03:12:00,
2013-01-18 22:44:00,24.0,20.0,-100.00,SSW,199,1.0,3.0,84,0.00,,,0.43,0.000000,,2013-01-19 03:44:00,
2013-01-18 22:53:00,24.0,20.0,-100.00,SSW,199,1.0,3.0,84,0.00,,,0.43,0.000000,,2013-01-19 03:53:00,
2013-01-18 23:02:00,24.0,20.0,-100.00,SSW,199,1.0,3.0,84,0.00,,,0.43,0.000000,,2013-01-19 04:02:00,
2013-01-18 23:12:00,24.0,20.0,-100.00,SSW,199,1.0,3.0,84,0.00,,,0.43,0.000000,,2013-01-19 04:12:00,
2013-01-18 23:43:00,25.0,19.0,-100.00,SSW,195,0.0,4.0,78,0.00,,,0.43,0.000000,,2013-01-19 04:43:00,
2013-01-18 23:53:00,25.0,19.0,-100.00,SSW,195,0.0,4.0,78,0.00,,,0.43,0.000000,,2013-01-19 04:53:00,